User: anonymous   Login
Location: Unspecified
(0.0000°N, 0.0000°E)
Time: 22:12:39
(UTC+01:00)
Language:

Cosmos 1898 Rocket - Orbit

View from above orbital plane
View from above orbital plane
View from above satellite
View from above satellite

Ground track
Ground track

The orbit data is extracted from the following two-line orbital elements,

1 18586U 87098B   16344.44507803  .00000011  00000-0  12691-4 0  9994
2 18586  74.0074 284.7155 0020403  22.8641 114.5055 14.36750606520114
Epoch (UTC): 09 December 2016 10:40:54
Eccentricity: 0.0020403
inclination: 74.0074°
perigee height: 754 km
apogee height: 784 km
right ascension of ascending node: 284.7155°
argument of perigee: 22.8641°
revolutions per day: 14.36750606
mean anomaly at epoch: 114.5055°
orbit number at epoch: 52011

The dashed part of the orbit path shows where the satellite is in the earth's shadow,  

DLR